Home > Weather > Pudukkottai > Past weeks

Flag for India Past Weather in Pudukkottai, Tamil Nadu, India — Yesterday and Last 2 Weeks

Now
97 °F

Scattered clouds.


Feels Like: 105 °F
Forecast: 79 / 99 °F
Wind: 9 mph from Northwest

Location: Tiruchchirapalli

Current Time: May 29, 2016 at 3:15:01 PM

Latest Report: May 29, 2016 at 2:30 PM


Visibility: N/A

Pressure: 29.68 "Hg

Humidity: 44%

Dew Point: 72 °F

Location of PudukkottaiLocation

Past Weather in Pudukkottai — Graph

°F

Pudukkottai Temperature Yesterday

Maximum temperature yesterday: 100 °F (at 2:30 PM)
Minimum temperature yesterday: 81 °F (at 12:00 AM)
Average temperature yesterday: 90 °F

High & Low Weather Summary for the Past Weeks

 TemperatureHumidityPressure
High104 °F (May 24, 3:30 PM)100% (May 16, 8:00 AM)29.83 "Hg (May 16, 8:00 AM)
Low73 °F (May 18, 6:00 AM)33% (May 24, 3:30 PM)29.53 "Hg (May 17, 4:00 PM)
Average88 °F66%29.69 "Hg
* Reported May 14 1:30 PM — May 29 2:00 PM, Pudukkottai, Weather by CustomWeather, © 2016

Note: Actual official high and low records may vary slightly from our data, if they occured in-between our weather recording intervals... More about our weather records

Advertising

Pudukkottai Weather History for the Previous 24 Hours

Scroll right to see more
 ConditionsComfort  
Time TempWeatherWind HumidityBarometerVisibility
2:00 PM
Sun, May 29
97 °FScattered clouds.9 mph44%29.68 "HgN/A
1:30 PM97 °FScattered clouds.9 mph44%29.68 "HgN/A
1:00 PM95 °FScattered clouds.9 mph47%29.71 "HgN/A
12:30 PM95 °FPassing clouds.9 mph47%29.71 "Hg5 mi
12:00 PM93 °FPassing clouds.7 mph49%29.71 "Hg5 mi
11:30 AM93 °FPassing clouds.7 mph49%29.74 "Hg5 mi
11:00 AM91 °FPassing clouds.7 mph52%29.77 "Hg5 mi
10:30 AM90 °FPassing clouds.7 mph59%29.77 "Hg4 mi
10:00 AM90 °FPassing clouds.9 mph55%29.77 "Hg4 mi
9:30 AM88 °FPassing clouds.12 mph62%29.77 "Hg4 mi
9:00 AM86 °FPassing clouds.12 mph66%29.77 "Hg4 mi
8:30 AM84 °FPassing clouds.14 mph70%29.77 "Hg4 mi
8:00 AM84 °FPassing clouds.14 mph70%29.77 "Hg4 mi
7:30 AM82 °FPassing clouds.16 mph74%29.77 "Hg4 mi
7:00 AM82 °FPassing clouds.14 mph74%29.74 "Hg4 mi
6:30 AM82 °FPassing clouds.12 mph74%29.74 "Hg4 mi
6:00 AM81 °FPassing clouds.13 mph79%29.74 "Hg4 mi
5:30 AM81 °FPassing clouds.12 mph79%29.74 "Hg4 mi
5:00 AM81 °FPassing clouds.14 mph79%29.71 "Hg4 mi
4:30 AM82 °FPassing clouds.10 mph74%29.71 "Hg4 mi
4:00 AM82 °FPassing clouds.6 mph74%29.71 "Hg4 mi
3:30 AM82 °FPassing clouds.9 mph74%29.71 "Hg4 mi
3:00 AM82 °FPassing clouds.10 mph74%29.71 "Hg4 mi
2:30 AM82 °FPassing clouds.9 mph74%29.71 "Hg4 mi
2:00 AM84 °FPassing clouds.7 mph70%29.71 "Hg4 mi
1:30 AM84 °FPassing clouds.8 mph66%29.74 "Hg4 mi
1:00 AM84 °FPassing clouds.9 mph66%29.74 "Hg4 mi
12:30 AM86 °FPassing clouds.14 mph62%29.74 "Hg4 mi
12:00 AM86 °FPassing clouds.12 mph62%29.74 "Hg4 mi
11:30 PM
Sat, May 28
86 °FPassing clouds.14 mph62%29.77 "Hg4 mi
11:00 PM90 °FPassing clouds.12 mph63%29.77 "Hg4 mi
10:30 PM90 °FPassing clouds.14 mph63%29.77 "Hg4 mi
10:00 PM90 °FPassing clouds.14 mph63%29.74 "Hg4 mi
9:30 PM90 °FPassing clouds.13 mph63%29.74 "Hg4 mi
9:00 PM90 °FPassing clouds.9 mph63%29.74 "Hg4 mi
8:30 PM91 °FPassing clouds.3 mph59%29.74 "Hg4 mi
8:00 PM91 °FPassing clouds.No wind63%29.74 "Hg4 mi
7:30 PM91 °FPassing clouds.5 mph59%29.71 "Hg4 mi
7:00 PM93 °FPassing clouds.5 mph56%29.68 "Hg4 mi
6:30 PM95 °FPassing clouds.5 mph53%29.68 "Hg5 mi
6:00 PM97 °FPassing clouds.5 mph50%29.65 "Hg5 mi
5:30 PM97 °FPassing clouds.5 mph47%29.65 "Hg5 mi
5:00 PM99 °FPassing clouds.3 mph44%29.65 "Hg5 mi
4:30 PM100 °FPassing clouds.3 mph42%29.65 "Hg5 mi
4:00 PM100 °FPassing clouds.6 mph42%29.65 "Hg5 mi
3:30 PM100 °FPassing clouds.7 mph42%29.68 "HgN/A
3:00 PM100 °FPassing clouds.9 mph42%29.68 "HgN/A
Weather by CustomWeather, © 2016

See weather overviewHow to use our weather pages